Location: Angwan Shehu
(11.2514°N, 7.4613°E)
Time: 21:53:17
(UTC+00:00)

COSMOS 2455 - Pass Details

Date: 14 November 2019
Orbit: 902 x 908 km, 67.1° (Epoch: 05 December)

Event Time Altitude Azimuth Distance (km) Brightness Sun altitude
Rises 19:20:22 0° 209° (SSW) 3,518 6.5 -33.2°
Reaches altitude 10° 19:22:55 10° 213° (SSW) 2,578 5.7 -33.8°
Enters shadow 19:27:39 49° 252° (WSW) 1,154 3.6 -34.9°
